LightSail-2 (44420 NORAD) Tracking and Keplerian Element Data

This shows tracking and keplerian element data for the satellite.

Feedback or suggestion? Click here.




ElementValue
Catalog44420
NameLightSail-2
Epoch Orbit17990
Epoch Day320.00463817
Epoch Year2022
RAAN192.8403
Inclination23.9883
Eccentricity0.0026944
Argument of Perigee276.6165
Mean Anonmoly212.0548
Mean Motion15.67402264
Decay Rate0.06035209
L11 44420U 19036AC 22320.00463817 .06035209 00000-0 44554-1 0 9999
L22 44420 23.9883 192.8403 0026944 276.6165 212.0548 15.67402264179909



Live tracking and technical data element details for LightSail-2 (NORAD 44420). LightSail-2 can be tracked NOW for your location showing map with azimuth and elevation plus other details from your city location.







IsCatalogInMostPopularTable: catalog: 44420, numindb: 756
Update: records affected: 1



GetName: 44420 LightSail-2

Hit Count: updated at: Mon, 18 May 2026 10:26:56 GMT